Regional Weather Roundup
Issued by NWS

Home | Current Version | Previous Version | Text Only | Print | Product List | Glossary Off
Versions: 1 2 3 4 5 6 7 8 9 10 11 12 13 14 15 16 17 18 19 20 21 22 23 24 25 26 27 28 29 30 31 32 33 34 35 36 37 38 39 40 41 42 43 44 45 46 47 48 49 50

000
ASUS43 KOAX 200302
RWRNE

WEATHER ROUNDUP FOR NEBRASKA
NATIONAL WEATHER SERVICE OMAHA NE
1000 PM CDT SUN OCT 19 2014

NOTES: SATELLITE DATA IS BEING USED TO AUGMENT CLOUD COVER ABOVE
       12000 FEET.
       "FAIR" INDICATES FEW OR NO CLOUDS BELOW 12,000 FEET WITH NO
       SIGNIFICANT WEATHER AND/OR OBSTRUCTIONS TO VISIBILITY.

  * THESE STATIONS DO NOT REPORT WEATHER SUCH AS RAIN...SNOW OR FOG.

NEZ001>004-019>022-054>056-200400-
NEBRASKA PANHANDLE

CITY           SKY/WX    TMP DP  RH WIND       PRES   REMARKS
SCOTTSBLUFF    CLEAR     52  37  56 S3        30.10R
ALLIANCE       CLEAR     47  36  65 SE5       30.10R
CHADRON        CLEAR     45  39  79 W3        30.08R
KIMBALL        CLEAR     51  34  53 CALM      30.13R
SIDNEY         CLEAR     44  36  73 CALM      30.12R
$$

NEZ057>060-069>072-079>082-200400-
SOUTHWEST NEBRASKA

CITY           SKY/WX    TMP DP  RH WIND       PRES   REMARKS
NORTH PLATTE   CLEAR     47  38  71 CALM      30.05R
IMPERIAL       CLEAR     54  39  57 CALM      30.07R
LEXINGTON      CLEAR     50  45  83 CALM      30.03R
MCCOOK         CLEAR     56  46  69 CALM      30.05R
OGALLALA       CLEAR     51  37  57 CALM      30.07S
$$

NEZ005>010-023>029-035>040-094-200400-
NORTH CENTRAL NEBRASKA

CITY           SKY/WX    TMP DP  RH WIND       PRES   REMARKS
VALENTINE      CLEAR     52  37  56 W7        30.05R
AINSWORTH      CLEAR     50  38  62 W5        30.04R
BROKEN BOW     CLEAR     47  39  74 NW3       30.03R
O`NEILL        CLEAR     56  42  59 W6        30.01R
ORD            CLEAR     47  41  80 CALM      30.00R
THEDFORD       CLEAR     54  38  54 CALM      30.07R
$$

NEZ041-046>049-061>064-073>077-083>087-200400-
SOUTH CENTRAL NEBRASKA

CITY           SKY/WX    TMP DP  RH WIND       PRES   REMARKS
GRAND ISLAND   CLEAR     52  46  80 SW3       30.01R
AURORA         CLEAR     52  45  75 SW5       30.00R
HASTINGS       CLEAR     55  45  68 SW3       30.01R
HEBRON         CLEAR     57  47  69 SW6       30.00S
HOLDREGE       CLEAR     50  44  81 CALM      30.02S
KEARNEY *      CLEAR     57  46  67 SW5       30.02S
YORK           CLEAR     50  45  81 W6        29.99S
$$

NEZ011>018-030>034-042>045-200400-
NORTHEAST NEBRASKA

CITY           SKY/WX    TMP DP  RH WIND       PRES   REMARKS
NORFOLK        CLEAR     53  43  68 W5        29.96R
ALBION         CLEAR     47  40  77 CALM      29.99S
BLAIR          CLEAR     61  48  61 SW6       29.95S
COLUMBUS *     CLEAR     48  41  76 NW3       29.98S
FREMONT        CLEAR     56  48  75 CALM      29.96R
TEKAMAH        CLEAR     52  45  77 S5        29.93S
WAYNE          CLEAR     46  41  82 SW3       29.96R
$$

NEZ050>053-065>068-078-088>093-200400-
SOUTHEAST NEBRASKA

CITY           SKY/WX    TMP DP  RH WIND       PRES   REMARKS
LINCOLN        CLEAR     56  47  71 CALM      29.99R
OMAHA EPPLEY   CLEAR     57  47  69 SE6       29.95S
BEATRICE       CLEAR     58  49  72 SW9       29.98S
FALLS CITY     CLEAR     58  48  69 SW8       29.98R
NEBRASKA CITY  CLEAR     56  44  63 SW8       29.97S
PLATTSMOUTH    CLEAR     58  46  64 SW6       29.96R
$$

NEZ044-045-051>053-067-200400-
OMAHA AREA

CITY           SKY/WX    TMP DP  RH WIND       PRES   REMARKS
OMAHA EPPLEY   CLEAR     57  47  69 SE6       29.95S
BLAIR          CLEAR     61  48  61 SW6       29.95S
FREMONT        CLEAR     56  48  75 CALM      29.96R
MILLARD        CLEAR     53  49  86 CALM      29.95S
OFFUTT AFB     CLEAR     49  49  99 SE2       29.95R
PLATTSMOUTH    CLEAR     58  46  64 SW6       29.96R
WAHOO          FAIR      56  46  70 CALM      29.96R
$$



USA.gov is the U.S. government's official web portal to all federal, state and local government web resources and services.